Location: Aressy
(43.2833°N, 0.3167°W)
Time: 21:35:50
(UTC+00:00)

ISS - Pass Details

Date: 28 January 2021
Orbit: 417 x 422 km, 51.6° (Epoch: 03 March)

Event Time Altitude Azimuth Distance (km) Brightness Sun altitude
Rises 19:22:56 0° 303° (WNW) 2,376 0.9 -24.6°
Reaches altitude 10° 19:25:17 10° 317° (NW) 1,511 -0.4 -25.0°
Enters shadow 19:26:17 16° 329° (NNW) 1,199 -1.2 -25.2°
